Temp
77 77 76 77 77 78 78 77 78 78 77 77 77 77 78 78 79 79 79 79 79 79 78 77 77 77 79 77 78 77 78 77 77 77 76 77 76 77 80 78 77 76
77 77 78 78 77 78 78 79 78 79 77 77 78 78 78 79 79 79 79 79 79 79 78 78 77 77 77 77 77 77 77 77 76 80 77 77 76 77 79 78 78 77
77 77 77 77 78 78 80 79 79 79 79 79 79 78 79 80 79 78 79 79 78 79 78 78 77 77 77 77 77 78 77 76 76 78 77 76 77 77 77 79 78 78
78 78 78 79 79 79 80 79 78 78 79 78 79 80 81 82 80 79 78 80 78 78 78 78 78 78 77 77 77 77 77 76 77 77 77 77 77 77 78 76 77 78
79 78 78 79 79 79 79 79 79 79 79 79 81 80 79 79 79 79 78 78 77 78 78 78 78 78 78 77 77 77 76 77 77 77 76 76 77 77 78 77 76 77
79 78 78 78 78 78 79 79 80 79 80 80 80 81 80 80 79 79 79 79 79 79 79 79 78 79 79 77 77 77 77 78 78 76 76 76 77 78 81 79 77 76
79 78 79 80 80 79 78 78 79 80 80 81 80 80 81 81 80 80 79 80 80 79 80 79 78 78 78 78 77 77 77 77 76 76 76 76 76 77 79 79 77 77
80 80 80 80 81 80 79 79 79 79 80 80 81 81 81 82 81 82 81 80 81 80 79 80 78 78 79 78 77 76 77 80 78 76 76 76 76 76 77 78 78 76
81 80 79 80 81 81 81 82 81 80 80 80 81 82 81 82 81 82 80 80 81 80 78 79 79 79 79 78 78 77 77 78 79 77 77 77 76 76 77 77 77 76
79 80 81 81 81 82 82 83 83 82 81 82 81 82 82 81 81 82 81 80 80 80 79 79 79 79 79 79 79 78 78 78 78 77 78 78 78 78 78 78 77 76
76 78 81 81 82 83 83 83 84 84 82 83 83 82 83 81 80 81 80 79 81 80 79 79 79 79 79 79 80 80 79 79 79 78 77 78 78 78 80 78 78 77
71 70 72 76 80 79 79 80 81 82 83 83 84 82 81 82 81 80 81 79 80 80 80 80 79 79 79 80 80 80 80 80 79 79 79 78 78 79 79 79 79 78
72 72 71 73 75 77 77 77 79 81 82 82 84 84 82 82 82 80 80 80 80 80 81 80 79 79 79 79 80 80 80 79 79 79 79 78 78 79 80 80 79 79
72 73 74 73 73 74 75 76 77 77 77 78 80 83 84 83 83 81 81 81 81 80 81 80 79 78 78 78 79 80 79 79 79 79 79 79 79 78 80 81 80 80
73 74 74 75 75 74 74 75 75 76 76 76 75 78 85 84 84 84 82 81 81 81 81 81 81 80 80 79 78 78 79 79 78 78 79 79 79 79 78 78 80 81
73 74 74 73 73 73 73 74 75 74 76 74 75 74 76 80 79 81 83 82 81 81 81 82 82 83 80 76 78 80 79 81 79 78 78 77 77 77 78 79 80 81
73 73 74 73 73 73 73 74 74 75 73 73 73 74 73 74 78 81 82 82 82 82 81 82 84 85 77 70 71 75 81 79 79 77 76 76 77 76 76 78 79 79
72 72 72 73 73 73 74 74 75 74 73 73 74 74 74 75 74 74 75 78 82 81 81 82 83 79 72 69 69 69 75 81 79 79 79 77 77 77 77 77 78 79
71 72 72 72 73 73 73 73 73 73 73 73 74 74 74 73 73 75 75 75 75 75 77 79 81 78 71 68 67 67 67 75 81 81 80 80 78 77 77 77 77 77
71 72 72 72 73 73 73 73 73 72 74 74 74 74 73 73 74 73 73 74 75 75 75 77 77 70 69 66 65 65 66 68 79 82 81 81 81 80 80 79 78 77
71 71 72 72 73 73 72 72 73 73 74 74 74 74 74 73 73 73 74 74 75 76 75 78 78 65 65 63 63 64 65 67 73 76 79 79 80 80 79 80 79 78
70 70 71 71 72 72 72 72 72 72 72 73 74 74 74 74 74 74 74 74 75 76 76 75 74 62 64 62 61 60 63 71 72 73 75 77 77 77 77 77 78 78
70 69 70 69 70 71 71 71 71 71 71 73 72 72 73 74 74 75 75 75 75 75 75 74 74 64 62 62 60 59 64 70 70 72 73 75 77 78 78 77 77 77
71 70 70 70 69 70 70 71 71 71 71 73 72 72 73 74 75 75 75 75 75 76 77 75 74 67 58 57 58 60 68 70 70 70 72 73 75 76 77 77 78 81
70 71 71 70 70 70 71 71 71 71 72 72 72 73 73 73 73 73 73 73 75 75 77 76 75 69 56 57 57 57 65 71 70 71 72 72 73 74 75 76 77 79
69 69 70 70 69 69 70 70 71 71 70 71 72 72 72 72 73 73 73 73 75 76 77 77 76 75 71 60 57 56 58 70 70 70 71 72 73 74 74 75 76 77
MSLP
1018.63 1018.83 1019.07 1019.27 1019.43 1019.51 1019.75 1020.03 1020.11 1020.31 1020.39 1020.43 1020.63 1020.67 1020.67 1020.51 1020.47 1020.59 1020.67 1020.79 1020.91 1021.03 1021.07 1021.11 1021.11 1021.23 1021.27 1021.27 1021.23 1021.35 1021.43 1021.51 1021.55 1021.47 1021.55 1021.63 1021.79 1021.83 1021.95 1021.91 1021.91 1021.95
1018.63 1018.75 1018.87 1019.03 1019.23 1019.31 1019.39 1019.47 1019.75 1019.99 1020.23 1020.23 1020.23 1020.31 1020.31 1020.31 1020.35 1020.43 1020.63 1020.79 1020.87 1020.99 1020.99 1021.03 1021.07 1021.15 1021.27 1021.31 1021.35 1021.47 1021.55 1021.59 1021.75 1021.43 1021.71 1021.79 1021.79 1021.79 1021.87 1021.83 1021.91 1021.79
1018.51 1018.75 1018.87 1019.07 1019.19 1019.31 1019.31 1019.35 1019.47 1019.63 1019.87 1019.91 1019.95 1020.07 1020.19 1020.11 1020.27 1020.35 1020.47 1020.63 1020.83 1020.87 1020.91 1020.95 1021.03 1021.07 1021.15 1021.23 1021.31 1021.43 1021.59 1021.67 1021.79 1021.63 1021.75 1021.87 1021.79 1021.91 1021.83 1021.79 1021.83 1021.83
1018.35 1018.47 1018.67 1018.75 1018.79 1019.03 1019.07 1019.31 1019.47 1019.55 1019.59 1019.87 1019.99 1019.87 1019.91 1019.95 1020.03 1020.27 1020.39 1020.43 1020.63 1020.75 1020.79 1020.87 1020.99 1021.07 1021.15 1021.23 1021.31 1021.51 1021.55 1021.63 1021.59 1021.59 1021.79 1021.83 1021.83 1021.83 1021.87 1021.83 1021.87 1021.83
1018.31 1018.43 1018.51 1018.59 1018.59 1018.67 1018.87 1019.19 1019.43 1019.47 1019.55 1019.55 1019.59 1019.63 1019.75 1019.83 1019.99 1020.11 1020.23 1020.35 1020.43 1020.67 1020.75 1020.87 1020.95 1021.07 1021.11 1021.27 1021.35 1021.59 1021.63 1021.71 1021.63 1021.67 1021.91 1022.03 1021.79 1021.79 1021.71 1021.75 1021.95 1022.03
1018.27 1018.31 1018.43 1018.55 1018.59 1018.71 1018.95 1019.07 1019.11 1019.23 1019.31 1019.43 1019.43 1019.35 1019.43 1019.51 1019.71 1019.87 1020.03 1020.23 1020.35 1020.55 1020.71 1020.79 1020.99 1021.03 1021.07 1021.23 1021.39 1021.55 1021.63 1021.79 1021.67 1021.75 1021.95 1022.07 1021.91 1021.67 1021.67 1021.71 1021.87 1021.99
1018.43 1018.43 1018.51 1018.51 1018.59 1018.63 1018.83 1018.91 1018.91 1018.95 1019.03 1018.99 1019.07 1019.27 1019.23 1019.43 1019.59 1019.71 1019.83 1019.99 1020.19 1020.43 1020.63 1020.79 1020.95 1021.07 1020.99 1021.19 1021.39 1021.55 1021.59 1021.63 1021.63 1021.75 1021.95 1021.95 1021.91 1021.83 1021.63 1021.71 1021.83 1021.91
1018.27 1018.31 1018.43 1018.55 1018.67 1018.71 1018.83 1018.83 1018.91 1018.91 1018.87 1018.95 1019.15 1019.07 1019.07 1019.27 1019.43 1019.51 1019.67 1019.83 1020.07 1020.27 1020.43 1020.59 1020.71 1020.87 1020.91 1021.07 1021.35 1021.51 1021.59 1021.47 1021.63 1021.75 1021.87 1021.91 1021.87 1021.91 1021.71 1021.63 1021.67 1021.87
1018.15 1018.35 1018.43 1018.63 1018.75 1018.79 1018.83 1018.75 1018.75 1018.79 1018.79 1019.03 1019.07 1019.03 1018.95 1019.03 1019.19 1019.31 1019.51 1019.71 1019.87 1020.03 1020.27 1020.39 1020.51 1020.67 1020.71 1020.87 1021.07 1021.23 1021.39 1021.39 1021.35 1021.55 1021.75 1021.87 1021.91 1021.83 1021.71 1021.55 1021.71 1021.75
1018.27 1018.23 1018.43 1018.55 1018.75 1018.67 1018.75 1018.67 1018.59 1018.67 1018.67 1018.91 1018.91 1018.87 1019.03 1018.95 1018.87 1019.03 1019.27 1019.55 1019.75 1019.91 1020.03 1020.15 1020.31 1020.39 1020.47 1020.55 1020.67 1020.83 1020.99 1021.07 1021.07 1021.15 1021.35 1021.47 1021.55 1021.55 1021.47 1021.47 1021.59 1021.67
1018.79 1018.55 1018.39 1018.43 1018.59 1018.51 1018.63 1018.55 1018.55 1018.55 1018.59 1018.75 1018.83 1018.95 1018.87 1018.95 1018.95 1018.83 1019.11 1019.31 1019.55 1019.67 1019.75 1019.87 1019.95 1020.03 1020.23 1020.31 1020.31 1020.27 1020.47 1020.59 1020.67 1020.79 1020.91 1021.03 1021.11 1021.11 1021.07 1021.15 1021.23 1021.39
1018.55 1018.43 1018.91 1018.91 1018.55 1018.59 1018.59 1018.55 1018.51 1018.55 1018.59 1018.51 1018.55 1018.79 1018.79 1018.83 1018.95 1018.95 1018.95 1019.15 1019.19 1019.27 1019.35 1019.47 1019.55 1019.71 1019.87 1019.95 1020.03 1020.03 1020.11 1020.19 1020.27 1020.39 1020.47 1020.59 1020.63 1020.71 1020.75 1020.75 1020.91 1020.95
1018.39 1018.11 1018.11 1018.71 1019.11 1018.75 1018.63 1018.63 1018.55 1018.43 1018.35 1018.55 1018.39 1018.43 1018.63 1018.79 1018.79 1018.91 1018.83 1018.91 1018.99 1019.03 1019.15 1019.23 1019.35 1019.47 1019.63 1019.71 1019.75 1019.83 1019.91 1020.03 1020.11 1020.15 1020.23 1020.31 1020.31 1020.31 1020.35 1020.39 1020.47 1020.55
1018.55 1018.31 1018.27 1018.43 1018.83 1019.15 1018.91 1018.67 1018.67 1018.59 1018.43 1018.23 1018.19 1018.43 1018.43 1018.43 1018.55 1018.71 1018.67 1018.71 1018.79 1018.87 1018.87 1018.95 1019.15 1019.39 1019.51 1019.59 1019.63 1019.67 1019.79 1019.87 1019.91 1020.03 1020.15 1020.19 1020.15 1020.11 1020.07 1020.11 1020.15 1020.19
1018.19 1017.99 1017.91 1018.07 1018.31 1018.51 1018.71 1018.79 1018.59 1018.51 1018.39 1018.19 1018.23 1018.11 1018.03 1018.07 1017.99 1018.07 1018.43 1018.59 1018.55 1018.59 1018.67 1018.71 1018.95 1019.11 1019.19 1019.35 1019.59 1019.67 1019.63 1019.79 1019.83 1019.91 1019.99 1020.11 1020.07 1020.03 1019.99 1019.95 1019.91 1019.83
1017.91 1018.03 1018.07 1018.11 1018.23 1018.39 1018.35 1018.43 1018.55 1018.43 1018.35 1018.31 1018.19 1018.23 1018.07 1017.79 1017.91 1017.99 1018.11 1018.31 1018.47 1018.51 1018.51 1018.59 1018.67 1018.63 1018.63 1018.75 1018.87 1019.11 1019.35 1019.43 1019.55 1019.67 1019.79 1019.91 1020.07 1020.15 1020.07 1019.91 1019.79 1019.67
1017.91 1018.03 1018.07 1018.23 1018.27 1018.31 1018.39 1018.39 1018.55 1018.43 1018.35 1018.27 1018.27 1018.19 1018.15 1018.03 1017.79 1017.87 1017.95 1017.99 1018.15 1018.31 1018.47 1018.47 1018.39 1018.27 1018.23 1018.39 1018.51 1018.55 1018.71 1018.99 1019.19 1019.35 1019.39 1019.59 1019.79 1019.99 1020.11 1019.99 1019.83 1019.63
1018.07 1017.99 1018.03 1018.11 1018.11 1018.31 1018.43 1018.35 1018.31 1018.39 1018.31 1018.27 1018.23 1018.19 1018.15 1018.03 1018.07 1018.07 1017.95 1017.83 1017.83 1017.95 1018.19 1018.23 1018.19 1017.95 1017.99 1018.11 1018.19 1018.27 1018.35 1018.55 1018.79 1019.03 1019.15 1019.27 1019.35 1019.51 1019.55 1019.63 1019.67 1019.59
1018.19 1018.11 1018.03 1018.03 1018.11 1018.19 1018.27 1018.35 1018.43 1018.43 1018.39 1018.31 1018.23 1018.07 1018.03 1018.11 1018.23 1018.19 1018.11 1018.03 1017.99 1018.03 1018.07 1017.95 1017.91 1017.75 1017.83 1017.99 1018.11 1018.19 1018.31 1018.43 1018.51 1018.67 1018.87 1018.95 1018.99 1019.03 1019.07 1019.11 1019.15 1019.23
1018.23 1018.23 1018.23 1018.11 1018.03 1018.11 1018.19 1018.27 1018.35 1018.43 1018.31 1018.19 1018.23 1018.15 1018.03 1018.03 1018.07 1018.19 1018.15 1018.07 1017.99 1017.95 1017.95 1017.79 1017.79 1017.63 1017.47 1017.51 1017.67 1017.87 1018.07 1018.39 1018.39 1018.35 1018.43 1018.51 1018.55 1018.63 1018.71 1018.79 1018.79 1018.87
1018.35 1018.31 1018.39 1018.27 1018.11 1018.15 1018.27 1018.39 1018.43 1018.39 1018.35 1018.27 1018.23 1018.27 1018.23 1018.15 1018.03 1018.07 1018.03 1017.95 1017.83 1017.71 1017.71 1017.71 1017.55 1017.47 1017.35 1017.31 1017.39 1017.59 1017.83 1018.23 1018.47 1018.55 1018.59 1018.59 1018.51 1018.43 1018.43 1018.39 1018.35 1018.39
1018.55 1018.59 1018.55 1018.43 1018.27 1018.27 1018.35 1018.51 1018.55 1018.55 1018.59 1018.35 1018.27 1018.19 1018.03 1017.95 1017.91 1017.79 1017.87 1017.91 1017.75 1017.63 1017.67 1017.71 1017.47 1017.39 1017.27 1017.35 1017.47 1017.63 1017.83 1018.07 1018.19 1018.39 1018.51 1018.47 1018.39 1018.31 1018.31 1018.27 1018.23 1018.31
1018.67 1018.71 1018.71 1018.67 1018.59 1018.59 1018.67 1018.71 1018.71 1018.67 1018.55 1018.35 1018.43 1018.35 1018.31 1018.23 1018.15 1018.03 1017.87 1017.83 1017.87 1017.79 1017.83 1017.75 1017.59 1017.55 1017.59 1017.55 1017.59 1017.67 1017.79 1017.95 1018.07 1018.23 1018.27 1018.23 1017.99 1017.75 1017.67 1017.63 1017.63 1017.71
1018.67 1018.59 1018.67 1018.67 1018.75 1018.91 1018.95 1018.87 1018.75 1018.67 1018.63 1018.35 1018.51 1018.51 1018.43 1018.31 1018.23 1018.27 1018.23 1018.27 1018.43 1018.47 1018.15 1018.19 1018.19 1018.07 1018.19 1018.15 1018.07 1018.03 1017.95 1018.03 1018.07 1018.19 1018.19 1018.19 1017.99 1017.75 1017.63 1017.55 1017.39 1017.27
1018.83 1018.71 1018.67 1018.75 1018.83 1018.91 1018.95 1019.07 1018.95 1018.83 1018.63 1018.43 1018.39 1018.43 1018.47 1018.35 1018.31 1018.59 1018.71 1018.63 1018.51 1018.55 1018.27 1018.23 1018.27 1018.35 1018.55 1018.47 1018.31 1018.11 1017.99 1017.91 1017.95 1018.07 1018.19 1018.07 1017.95 1017.71 1017.43 1017.39 1017.27 1017.07
1019.19 1019.11 1019.03 1018.95 1018.99 1018.95 1018.99 1018.99 1018.83 1018.71 1018.63 1018.55 1018.47 1018.39 1018.51 1018.43 1018.35 1018.35 1018.63 1018.67 1018.39 1018.27 1017.99 1017.67 1017.79 1017.79 1017.91 1018.19 1018.15 1018.03 1017.99 1017.95 1017.95 1018.15 1018.11 1017.83 1017.67 1017.59 1017.59 1017.27 1017.03 1016.79
Wind_Speed
6 5 6 7 6 6 7 7 6 7 6 6 6 6 7 6 5 5 5 5 4 5 5 4 3 3 2 2 1 1 3 3 3 2 2 2 3 3 4 4 4 4
6 5 4 5 6 5 6 7 7 7 7 6 6 6 5 5 5 4 5 5 4 5 4 4 3 3 3 3 2 2 2 2 3 1 3 3 3 3 4 4 4 4
6 5 5 6 7 7 8 6 7 7 7 7 5 5 6 5 5 5 5 6 5 5 4 4 3 3 3 2 2 2 2 2 2 1 2 3 3 4 4 4 4 4
7 6 6 6 7 8 7 7 6 6 6 6 7 7 6 6 6 6 5 5 5 4 4 3 3 3 3 3 3 2 2 2 3 2 2 2 3 3 4 3 3 4
7 6 5 5 5 6 6 7 7 7 7 7 7 6 6 5 6 5 6 5 4 4 3 3 3 3 3 3 3 3 2 3 3 2 2 3 4 3 4 3 3 4
5 5 4 4 4 4 5 6 6 7 6 6 7 6 6 6 6 5 5 5 4 4 4 4 4 4 4 3 3 3 3 4 4 2 2 3 4 3 3 3 3 4
6 5 5 5 4 4 4 5 5 5 6 6 5 5 5 6 6 6 5 6 6 5 5 5 4 4 4 3 4 4 3 4 3 3 3 3 3 4 3 3 3 4
7 5 5 4 5 5 4 5 5 5 5 5 6 6 6 7 7 6 6 6 6 6 6 6 5 5 5 4 5 4 4 3 3 3 4 4 3 4 4 4 3 4
6 6 5 6 7 6 6 6 6 6 5 6 7 6 6 6 7 8 7 7 7 7 6 6 6 6 6 6 6 6 6 5 4 4 4 5 5 5 5 4 3 3
4 6 6 7 8 7 8 7 7 6 5 6 6 6 6 5 6 8 8 8 8 8 7 7 7 7 7 7 8 7 7 7 6 5 5 6 6 6 6 5 4 4
8 3 6 9 8 7 7 7 7 7 6 7 6 6 6 6 5 6 8 8 9 9 8 7 8 8 8 8 7 7 8 8 7 6 6 6 6 7 6 6 6 5
3 4 6 5 6 5 4 3 2 2 4 7 7 7 6 6 6 6 7 8 8 8 8 8 8 8 9 9 9 8 8 7 7 7 7 7 6 6 6 6 6 6
6 6 6 1 6 2 3 1 2 2 2 3 6 8 7 7 7 7 6 7 8 7 8 8 7 7 7 8 8 8 8 8 7 7 7 6 6 7 7 7 7 6
5 5 5 4 2 4 2 0 1 0 1 1 2 6 8 8 8 9 8 7 8 8 8 7 6 6 6 7 7 7 7 7 7 7 7 6 6 6 6 7 7 7
6 5 4 6 6 4 1 3 1 1 1 0 2 3 7 8 9 10 9 9 8 8 8 7 7 7 6 6 7 7 6 6 6 6 7 7 7 6 6 7 6 7
7 6 5 4 4 4 3 3 3 2 1 1 0 3 4 6 5 5 8 9 9 9 8 7 7 6 8 13 11 8 8 7 6 6 6 5 6 6 6 6 7 6
3 4 4 4 3 2 2 2 2 2 2 1 1 2 3 3 2 6 6 7 8 9 9 8 8 7 13 14 15 15 10 8 8 7 6 6 6 6 7 7 6 6
3 4 5 4 4 4 4 3 5 4 3 2 1 1 1 2 3 1 0 2 5 6 7 7 7 9 13 14 15 16 13 8 7 7 6 7 7 7 7 7 7 7
2 3 4 4 3 3 2 2 1 0 0 1 2 2 2 3 2 1 0 1 2 2 2 3 5 8 10 11 13 13 14 11 7 7 8 8 8 8 8 8 7 7
2 3 3 4 4 3 3 3 3 2 1 1 1 0 2 3 3 3 2 1 1 2 1 1 1 1 5 11 13 13 13 10 7 8 8 9 9 9 8 8 8 8
4 4 4 3 5 5 5 4 4 3 3 2 2 1 0 1 2 2 3 3 3 3 2 3 3 4 6 9 11 13 12 8 6 5 5 5 6 7 8 9 9 9
4 4 4 5 4 4 4 4 3 2 2 2 1 2 2 2 2 2 2 3 4 3 3 3 2 6 8 8 8 7 7 6 6 7 8 8 8 5 5 6 6 7
5 5 5 5 5 5 5 4 3 3 3 2 2 2 2 2 3 3 3 1 2 2 3 3 3 4 2 3 4 8 6 3 3 4 5 7 9 9 8 7 7 7
4 5 3 4 4 5 4 4 3 3 4 3 3 3 3 3 4 5 7 8 9 8 5 1 2 1 0 1 1 1 1 2 3 4 5 5 7 7 7 7 8 12
5 3 3 3 2 1 1 1 2 3 3 3 3 3 3 4 5 5 4 3 4 1 7 2 1 3 7 5 6 8 6 5 5 5 5 6 6 7 6 6 7 9
5 6 5 5 4 3 1 1 2 2 2 2 3 2 2 2 2 2 3 4 6 4 3 2 1 0 3 10 11 11 11 6 4 4 6 7 6 7 6 6 7 8
Wind_Direction
179 175 169 174 182 178 173 174 180 181 185 181 185 192 196 200 192 190 199 198 193 195 206 201 191 200 185 170 141 155 182 203 222 221 244 256 272 280 297 310 320 299
188 180 177 170 176 181 174 173 177 179 184 184 188 187 196 188 195 184 194 199 188 191 197 186 179 188 185 183 159 138 148 167 220 232 235 253 261 280 281 290 296 307
185 189 181 173 175 180 175 178 174 179 181 187 185 185 190 193 189 182 188 194 188 188 193 186 177 188 185 188 163 172 167 186 231 272 213 232 249 262 270 285 300 294
192 194 188 182 172 178 176 170 180 181 178 180 192 193 191 193 189 184 182 188 184 187 193 186 187 190 193 196 177 188 187 208 231 223 222 247 248 243 263 275 289 299
196 196 193 189 178 173 174 173 183 186 187 192 192 191 190 188 186 188 180 183 177 189 186 195 191 197 201 193 181 195 190 214 250 235 220 248 254 238 254 262 284 286
202 198 196 193 186 171 179 185 189 187 197 192 198 188 193 188 188 190 184 182 179 187 190 194 194 204 196 187 188 200 201 213 241 224 232 242 258 253 260 272 279 287
194 192 199 197 196 187 181 195 198 199 199 204 195 197 189 189 193 196 191 189 182 186 191 195 196 203 204 185 193 206 212 214 223 219 228 246 244 266 267 265 279 283
191 187 193 198 203 201 202 195 207 210 208 205 205 210 190 190 191 194 192 189 190 187 191 195 196 198 203 185 199 208 219 216 213 217 231 242 241 253 258 255 258 264
189 189 184 199 201 205 213 212 208 211 209 204 211 212 203 193 187 188 187 189 192 191 188 193 196 199 199 193 199 203 210 216 209 200 214 229 236 240 248 253 258 254
209 187 194 195 203 205 210 219 215 213 210 214 212 209 208 207 188 184 182 186 191 195 192 191 193 199 200 200 200 200 207 213 214 203 204 218 222 227 235 241 244 249
11 308 212 200 206 204 211 216 219 212 209 219 211 215 216 206 206 186 183 185 192 195 199 198 196 195 199 203 205 202 204 208 212 211 209 212 218 222 224 222 231 233
134 90 360 302 208 186 174 149 136 202 225 216 207 210 211 213 208 204 190 193 196 197 199 204 203 199 199 202 203 205 207 210 211 213 213 211 216 221 224 220 223 229
169 175 164 327 313 245 164 145 115 89 131 213 227 211 203 207 212 211 211 201 204 202 203 203 204 206 205 206 205 203 206 209 215 218 219 216 216 217 218 221 226 230
187 185 167 143 134 308 330 126 90 85 23 336 204 227 218 205 207 207 212 209 209 208 211 206 203 207 210 211 211 206 204 211 212 216 221 223 221 219 218 219 221 225
186 185 158 165 168 167 204 270 208 192 258 266 318 233 217 222 210 204 205 210 211 209 210 205 200 203 200 203 208 215 212 214 216 218 223 228 231 227 221 221 222 222
167 174 180 185 163 168 183 216 233 191 169 310 339 337 276 225 221 224 209 207 210 213 212 208 210 210 203 198 198 200 206 212 212 217 221 230 237 246 247 238 235 231
151 163 157 148 152 145 154 166 220 195 185 168 6 12 26 349 209 195 207 209 210 211 212 213 217 219 212 203 204 205 201 205 207 213 209 213 222 231 243 248 251 248
71 97 102 103 106 119 148 172 165 177 170 184 158 105 35 51 48 50 139 201 198 201 207 217 225 230 220 213 212 213 212 210 211 216 214 213 215 220 226 231 242 246
50 68 82 79 77 91 86 101 87 85 198 198 171 164 135 107 119 97 36 28 87 109 163 202 217 224 226 225 228 225 223 223 227 223 226 226 222 223 224 224 224 230
42 66 66 65 67 64 67 64 54 32 310 265 283 224 139 136 139 136 156 161 160 154 166 184 132 332 208 211 215 221 228 228 240 237 232 233 231 228 230 231 228 226
43 54 51 53 68 67 63 57 52 41 29 8 4 325 335 155 165 160 170 175 183 182 163 159 161 186 150 175 192 202 213 204 232 255 271 274 264 254 246 241 236 230
43 41 40 31 33 54 56 52 41 29 13 337 346 337 330 314 281 234 189 181 185 179 168 165 217 216 163 168 171 189 182 185 202 215 228 238 247 253 253 255 255 251
50 43 46 35 21 30 34 23 25 4 349 334 341 327 317 307 308 297 295 268 204 177 175 189 204 272 326 110 127 139 145 172 189 214 231 236 241 236 232 228 228 229
59 57 37 54 41 30 25 15 7 354 341 339 333 330 333 349 343 359 0 2 359 352 346 131 194 277 262 342 41 238 234 180 208 209 228 239 250 255 253 253 246 239
7 25 15 42 42 53 22 12 352 334 321 335 350 352 350 12 23 22 16 344 315 359 313 339 141 150 183 216 206 216 215 213 206 212 234 238 239 249 246 241 248 250
28 27 11 357 339 326 305 240 239 267 289 319 330 341 24 10 1 79 35 2 335 332 283 300 329 303 169 180 200 216 220 232 231 221 240 247 238 240 247 250 247 250